User: anonymous   Login
Location: Blue Mountain Vista Observatory
(40.6992°N, 75.9422°W)
Time: 17:55:22
(UTC-04:00)
Language:

IDEFIX/ARIANE 42P - Orbit

View from above orbital plane
View from above orbital plane
View from above satellite
View from above satellite

Ground track
Ground track

The orbit data is extracted from the following two-line orbital elements,

1 27422U 02021B   15146.71517448  .00000055  00000-0  37878-4 0  9993
2 27422 098.2584 177.0874 0011259 311.0109 049.0099 14.29184244679194
Epoch (UTC): 26 May 2015 17:09:51
Eccentricity: 0.0011259
inclination: 98.2584°
perigee height: 786 km
apogee height: 802 km
right ascension of ascending node: 177.0874°
argument of perigee: 311.0109°
revolutions per day: 14.29184244
mean anomaly at epoch: 49.0099°
orbit number at epoch: 67919

The dashed part of the orbit path shows where the satellite is in the earth's shadow,  

DLR